This is the latest recevied weather packets stored in our database for station/object N2XP. If no packets are shown the sender has not sent any weather packets the latest 10 day(s).
| Time | Temp. | Humidity | Pressure | Rain* | Wind** | Luminosity | Snow |
|---|---|---|---|---|---|---|---|
| 1777288527 | 3.33° C | 96% | 1021.5 hPa | 0 mm | - | - | - |
| 1777287626 | 2.22° C | 96% | 1021.3 hPa | 0 mm | - | - | - |
| 1777286747 | 1.67° C | 96% | 1021.2 hPa | 0 mm | - | - | - |
| 1777285846 | 1.67° C | 96% | 1020.9 hPa | 0 mm | - | - | - |
| 1777284945 | 1.67° C | 96% | 1020.9 hPa | 0 mm | - | - | - |
| 1777284043 | 1.67° C | 95% | 1021 hPa | 0 mm | - | - | - |
| 1777283164 | 1.67° C | 95% | 1021.1 hPa | 0 mm | - | - | - |
| 1777282245 | 1.67° C | 95% | 1021.2 hPa | 0 mm | - | - | - |
| 1777281350 | 1.67° C | 95% | 1021.2 hPa | 0 mm | - | - | - |
| 1777280439 | 1.67° C | 95% | 1021.4 hPa | 0 mm | - | - | - |
| 1777279547 | 1.67° C | 95% | 1021.5 hPa | 0 mm | - | - | - |
| 1777278636 | 2.22° C | 95% | 1021.5 hPa | 0 mm | - | - | - |
| 1777277735 | 2.22° C | 95% | 1021.5 hPa | 0 mm | - | - | - |
| 1777276833 | 2.22° C | 95% | 1021.4 hPa | 0 mm | - | - | - |
| 1777275932 | 2.22° C | 95% | 1021.4 hPa | 0 mm | - | - | - |
| 1777275035 | 2.22° C | 95% | 1021.2 hPa | 0 mm | - | - | - |
| 1777274132 | 2.22° C | 95% | 1021.1 hPa | 0 mm | - | - | - |
| 1777273229 | 2.78° C | 94% | 1021.2 hPa | 0 mm | - | - | - |
| 1777272325 | 2.78° C | 94% | 1020.9 hPa | 0 mm | - | - | - |
| 1777271433 | 2.78° C | 94% | 1020.9 hPa | 0 mm | - | - | - |
| 1777270522 | 3.33° C | 94% | 1020.7 hPa | 0 mm | - | - | - |
| 1777269640 | 3.33° C | 94% | 1020.8 hPa | 0 mm | - | - | - |
| 1777268737 | 3.33° C | 94% | 1020.8 hPa | 0 mm | - | - | - |
| 1777267836 | 3.33° C | 94% | 1020.9 hPa | 0 mm | - | - | - |
| 1777266933 | 3.89° C | 93% | 1021.1 hPa | 0 mm | - | - | - |
* Rain latest hour (hover to see other rain measurements)
** Current wind speed in m/s (hover to see current wind gust speed)